Regional Weather Roundup
Issued by NWS

Home | Current Version | Previous Version | Text Only | Print | Product List | Glossary On
Versions: 1 2 3 4 5 6 7 8 9 10 11 12 13 14 15 16 17 18 19 20 21 22 23 24 25 26 27 28 29 30 31 32 33 34 35 36 37 38 39 40 41 42 43 44 45 46 47 48 49 50
000
ASUS45 KBOU 031707
RWRCO

WEATHER ROUNDUP FOR COLORADO
NATIONAL WEATHER SERVICE DENVER/BOULDER CO
1000 AM MST SAT DEC 03 2016

NOTE: "FAIR" INDICATES FEW OR NO CLOUDS BELOW 12000 FEET WITH NO
SIGNIFICANT WEATHER AND/OR OBSTRUCTIONS TO VISIBILITY.

COZ001>005-013-030-031-031800-
...NORTHWEST COLORADO...

CITY           SKY/WX    TMP DP  RH WIND       PRES   REMARKS
CRAIG          CLOUDY    19  13  77 CALM      30.19F
HAYDEN         CLOUDY    19   9  63 E7        30.16F WCI  10
MEEKER         CLOUDY    13   7  77 CALM      30.20S
MOUNT WERNER   NOT AVBL
STEAMBOAT SPGS CLOUDY    16  10  76 E6        30.16F WCI   8
WALDEN           N/A     18   5  57 S16G29    30.07S WCI   3
$$

COZ006>008-011-031800-
...WEST CENTRAL VALLEYS...

CITY           SKY/WX    TMP DP  RH WIND       PRES   REMARKS
GRAND JUNCTION FAIR      30  21  69 CALM      30.24R
MONTROSE       PTSUNNY   29  21  72 S5        30.23R WCI  24
EAGLE          MOSUNNY   25  18  74 W5        30.21S WCI  19
RIFLE          FAIR      26  16  65 W3        30.24R
DELTA          NOT AVBL
NUCLA          NOT AVBL
$$

COZ017>023-064>068-031800-
...SOUTHWEST COLORADO...

CITY           SKY/WX    TMP DP  RH WIND       PRES   REMARKS
DURANGO        FAIR      29  21  72 CALM      30.13S
CORTEZ         FAIR      29  23  78 CALM      30.15F
PAGOSA SPRINGS FAIR      25  24  99 CALM      30.12S
TELLURIDE      FAIR      20  14  79 E5        30.12S WCI  13
WOLF CREEK PAS SNOW      14  14 100 SW12G18   30.10R VSB<1/4 WCI   0
$$

COZ009-010-012-014-032>034-037-058>063-031800-
...CENTRAL COLORADO...

CITY           SKY/WX    TMP DP  RH WIND       PRES   REMARKS
ASPEN          FAIR      18  13  80 CALM      30.13F
BUENA VISTA    FAIR      20  11  68 CALM      30.03S
COPPER MTN     NOT AVBL
BERTHOUD PASS  FAIR       0 -13  55 N13G31    29.93R WCI -18
COTTONWOOD PAS FAIR      27  10  50 SE6       30.00S WCI  20
GUNNISON       CLOUDY    21  15  78 W6        30.15R WCI  13
KREMMLING      CLOUDY    19  12  73 CALM      30.17R
LEADVILLE      FAIR      18   0  45 NW7       30.03F WCI   9
MONARCH PASS   CLOUDY     9   5  85 W52       30.03R WCI -19
SALIDA         FAIR      23  15  71 N5        30.11R WCI  17
SUNLIGHT       FAIR     N/A N/A N/A SW3       30.12R
WILKERSON PASS FAIR      12  10  92 W6        29.98R WCI   3
$$

COZ069>075-031800-
...SAN LUIS VALLEY/SANGRE DE CRISTO MOUNTAINS...

CITY           SKY/WX    TMP DP  RH WIND       PRES   REMARKS
ALAMOSA        CLOUDY    24  19  81 W3        30.12S
LA VETA PASS   CLOUDY    21  19  93 NE12G24   30.01S FOG     WCI   9
SAGUACHE       FAIR      28  16  59 S3        30.11F
$$

COZ035-036-038>040-031800-
...NORTHERN COLORADO FRONT RANGE...

CITY           SKY/WX    TMP DP  RH WIND       PRES   REMARKS
DENVER INTL AP FAIR      31  20  63 SW6       30.00S WCI  25
DMNS CITY PARK   N/A     34  17  49 E9        30.00S WCI  26
AURORA         MOSUNNY   31  17  56 CALM      30.00S
FRONT RANGE AP NOT AVBL
ERIE MUNI ARPT FAIR      30  23  76 CALM      30.01S
BOULDER MUN AP FAIR      30  23  74 CALM      29.99F
CENTENNIAL     FAIR      32  15  49 CALM      29.99R
BROOMFIELD     PTSUNNY   28  23  80 CALM      29.99F FOG
FORT COLLINS   FAIR      27  21  80 CALM      30.02S
LONGMONT       FAIR      32  24  71 CALM      30.02F
$$

COZ041-046-047-076>085-087-088-031800-
...PIKES PEAK/PALMER DIVIDE AND SOUTHERN FOOTHILLS...

CITY           SKY/WX    TMP DP  RH WIND       PRES   REMARKS
COLO. SPRINGS  FAIR      28  20  71 CALM      30.00S
A. F. ACADEMY  FAIR      24  20  84 SW5       29.97F WCI  18
SCHRIEVER AFB  NOT AVBL
ELLICOTT       FAIR     N/A N/A N/A VRB6      29.98F
FALCON         FAIR      28  21  74 CALM      29.98F
FORT CARSON    FAIR      28  20  71 N10       29.98F WCI  18
LIMON          FAIR      33  23  66 S7        30.01F WCI  27
MONUMENT HILL  FAIR      34  14  44 W7        29.99R WCI  28
TRINIDAD       FAIR      34  22  61 S17       30.02F WCI  23
$$

COZ042>045-048>051-090-091-031800-
...NORTHEAST COLORADO...

CITY           SKY/WX    TMP DP  RH WIND       PRES   REMARKS
GREELEY ARPT   FAIR      29  19  66 NW6       30.04S WCI  23
AKRON          FAIR      34  19  54 SW14      30.01F WCI  25
BURLINGTON     FAIR      38  23  55 S15       30.07F
WRAY           NOT AVBL
STERLING       FAIR      30  21  69 SW5       30.03S WCI  25
HOLYOKE        FAIR      41  25  52 S16       30.05F
FORT MORGAN    FAIR      26  20  80 W8        30.03S WCI  17
$$

COZ086-089-092>099-031800-
...SOUTHEAST COLORADO...

CITY           SKY/WX    TMP DP  RH WIND       PRES   REMARKS
PUEBLO         FAIR      34  20  56 VRB3      30.02F
LA JUNTA       FAIR      33  22  63 S8        30.05F WCI  26
LAMAR          LGT RAIN  38  25  59 S10       30.07F
SPRINGFIELD      N/A     31  30  96 S9        30.09F WCI  23
$$



USA.gov is the U.S. government's official web portal to all federal, state and local government web resources and services.